Weather in Panovo

Russia / Ivanovo Oblast     56°51′04″N   42°05′03″E
temp.,
°C
wind,
m/s
gust,
m/s
humid.,
%
clouds,
%
prec.,
mm/h
press.,
hPa
HPBL,
m
3 march, wed
wed300:00−4nw5138952 0.0 1005563
03:00−6nw5139149 0.0 1008555
06:00−7nw51293100 0.1 1009518
09:00−7nw51192100 0.1 1010493
12:00−4nw51086100 0.1 1010752
15:00−2wnw598689 0.1 1009867
18:00−3wsw41095100 0.1 1007429
21:00−2w4119699 0.3 1006648
4 march, thu
thu400:00−2wsw51194100 0.4 1002767
03:00−2wsw61395100 0.8 1000761
06:00−1wsw51397100 0.9 996920
09:000wnw61290100 1.4 9951303
12:00−1wnw7127967 0.1 9951152
15:00−3wnw6108781 0.1 9971034
18:00−4wnw41088100 0.1 998491
21:00−6nw3896100 0.2 1000320
5 march, fri
fri500:00−8n239695 0.1 100140
03:00−12n239590 0.1 100336
06:00−14n12941 0.0 100520
09:00−11nw12901 0.0 1006125
12:00−6wnw238338 0.0 1006472
15:00−5w248368 0.0 1008658
18:00−8sw1293100 0.1 100821
21:00−11wsw229479 0.1 101021
6 march, sat
sat600:00−11wsw129799 0.1 101021
03:00−11nw369796 0.2 1011149
06:00−15nw249875 0.0 101286
09:00−14nnw369375 0.0 1013268
12:00−11nw3583100 0.0 1014709
15:00−10nw4678100 0.1 1014869
18:00−12w379294 0.0 1014176
21:00−14wsw389669 0.0 1014157
7 march, sun
sun700:00−14sw369732 0.0 1012123
03:00−14ssw4109331 0.0 1009238
06:00−11ssw5148896 0.0 1005574
09:00−9ssw7139298 0.8 1000893
12:00−5ssw71492100 1.3 9951128
15:00−3sw71292100 2.4 9931081
18:00−8wnw2289100 2.1 99161
21:00−9wnw2587100 2.1 991110